User: anonymous   Login
Location: Unspecified
(0.0000°N, 0.0000°E)
Time: 20:06:57
(UTC+00:00)
Language:

STARLINK-4730 - Orbit

View from above orbital plane
View from above orbital plane
View from above satellite
View from above satellite

Ground track
Ground track

The orbit is defined by the following mean orbital elements,

1 53794U          26145.43128729 +.00000000 +00000-0 +27426-4 0 00000
2 53794  53.2137 289.4594 0001196  86.1976 273.9152 15.08838650    09
Epoch (UTC): 25 May 2026 10:21:03
Eccentricity: 0.0001196
inclination: 53.2137°
perigee height: 539 km
apogee height: 541 km
right ascension of ascending node: 289.4594°
argument of perigee: 86.1976°
revolutions per day: 15.08838650
mean anomaly at epoch: 273.9152°

The dashed part of the orbit path shows where the satellite is in the earth's shadow,  

DLR